Regional Weather Roundup
Issued by NWS

Home | Current Version | Previous Version | Graphics & Text | Print | Product List | Glossary On
Versions: 1 2 3 4 5 6 7 8 9 10 11 12 13 14 15 16 17 18 19 20 21 22 23 24 25 26 27 28 29 30 31 32 33 34 35 36 37 38 39 40 41 42 43 44 45 46 47 48 49 50
865
ASUS44 KLIX 280611
RWRLA
LOUISIANA WEATHER ROUNDUP
NATIONAL WEATHER SERVICE NEW ORLEANS LA
100 AM CDT SAT MAR 28 2015

NOTE: "FAIR" INDICATES FEW OR NO CLOUDS BELOW 12,000 FEET WITH NO
      SIGNIFICANT WEATHER AND/OR OBSTRUCTIONS TO VISIBILITY.
      SKY/WX - SKY CONDITION AND SIGNIFICANT WEATHER.
      TMP - AIR TEMPERATURE.    DP   - DEWPOINT TEMPERATURE.
      RH  - RELATIVE HUMIDITY.  PRES - PRESSURE.
      HX  - HEAT INDEX.         WCI  - WIND CHILL INDEX.

*  THESE STATIONS ARE NOT NWS OR FAA STATIONS AND ARE NOT UNDER
   NWS QUALITY CONTROL.

LAZ040-048-061>063-065-066-069-280700-
SOUTHEAST LOUISIANA

CITY           SKY/WX    TMP DP  RH WIND       PRES   REMARKS
N.O. AUDUBON     N/A     55 N/A N/A MISG        N/A
6HR MIN TEMP:  55; 6HR MAX TEMP:  66;

N.O. INTL ARPT PTCLDY    57  39  51 NE9       30.17R
6HR MIN TEMP:  57; 6HR MAX TEMP:  65;

N.O. LAKEFRONT CLEAR     60  39  45 NE15      30.17R
6HR MIN TEMP:  59; 6HR MAX TEMP:  69;

SLIDELL        CLEAR     48  41  76 N5        30.16R
6HR MIN TEMP:  48; 6HR MAX TEMP:  66;

BATON ROUGE    CLEAR     50  42  74 CALM      30.18R
6HR MIN TEMP:  50; 6HR MAX TEMP:  68;

BOOTHVILLE     CLEAR     57  47  69 VRB7      30.16R
6HR MIN TEMP:  55; 6HR MAX TEMP:  65;

BELLE CHASSE   CLEAR     48  42  80 NE3       30.17R
6HR MIN TEMP:  47; 6HR MAX TEMP:  66;

BOGALUSA*        N/A     46  39  77 CALM      30.19R
6HR MIN TEMP:  46; 6HR MAX TEMP:  64;

GALLIANO*      CLEAR     59  55  87 N3        30.15S
6HR MIN TEMP:  53; 6HR MAX TEMP:  65;

NEW ROADS*     FAIR      52  41  67 N3        30.19R
6HR MIN TEMP:  51; 6HR MAX TEMP:  68;

GONZALES*      FAIR      53  41  65 CALM      30.18R
6HR MIN TEMP:  52; 6HR MAX TEMP:  67;

HAMMOND*       CLEAR     48  39  71 CALM      30.20R
HOUMA*         CLEAR     55  50  86 N9        30.16R
6HR MIN TEMP:  54; 6HR MAX TEMP:  66;

PORT FOURCHON* CLEAR     64  55  72 W9        30.17F

$$

LAZ041-044-053-054-280700-
SOUTHWEST LOUISIANA

CITY           SKY/WX    TMP DP  RH WIND       PRES   REMARKS
LAKE CHARLES   CLEAR     51  46  83 NE3       30.18R
6HR MIN TEMP:  51; 6HR MAX TEMP:  73;

LAFAYETTE      CLEAR     54  43  66 NE6       30.17R
6HR MIN TEMP:  54; 6HR MAX TEMP:  70;

PATTERSON      CLEAR     55  43  62 NE10      30.18R
6HR MIN TEMP:  55; 6HR MAX TEMP:  66;

SALT POINT       N/A     60  45  57 VRB6      30.15R
6HR MIN TEMP:  60; 6HR MAX TEMP:  64; 6HR PCP:  0.05;

NEW IBERIA     CLEAR     57  43  59 NE7       30.18R
6HR MIN TEMP:  55; 6HR MAX TEMP:  71;

CHENAULT AIRPK CLEAR     53  44  71 CALM      30.18R
6HR MIN TEMP:  53; 6HR MAX TEMP:  72;


$$

LAZ027-028-280700-
CENTRAL LOUISIANA

CITY           SKY/WX    TMP DP  RH WIND       PRES   REMARKS
FORT POLK      CLEAR     55  38  53 N5        30.17R
6HR MIN TEMP:  50; 6HR MAX TEMP:  68;

ALEXANDRIA INT CLEAR     48  42  80 CALM      30.18R
6HR MIN TEMP:  48; 6HR MAX TEMP:  65;

ALEXANDRIA     CLEAR     46  41  82 CALM      30.19S
6HR MIN TEMP:  46; 6HR MAX TEMP:  67;


$$

LAZ001-002-280700-
NORTHWEST LOUISIANA

CITY           SKY/WX    TMP DP  RH WIND       PRES   REMARKS
SHREVEPORT     PTCLDY    47  39  74 CALM      30.18S
6HR MIN TEMP:  47; 6HR MAX TEMP:  64;

BARKSDALE AFB  CLEAR     48  35  62 CALM      30.19R
6HR MIN TEMP:  47; 6HR MAX TEMP:  63;

DTN SHREVEPORT CLEAR     46  36  68 CALM      30.19S
6HR MIN TEMP:  46; 6HR MAX TEMP:  64;


$$

LAZ014-016-280700-
NORTHEAST LOUISIANA

CITY           SKY/WX    TMP DP  RH WIND       PRES   REMARKS
MONROE         CLEAR     46  40  79 CALM      30.19F
6HR MIN TEMP:  45; 6HR MAX TEMP:  58;

TALLULAH       LGT RAIN  46  37  71 E6        30.19S
6HR MIN TEMP:  46; 6HR MAX TEMP:  55; 6HR PCP: TRACE;


$$




USA.gov is the U.S. government's official web portal to all federal, state and local government web resources and services.